Zurück zum Katalog

STARLINK-4724

AktivKommunikationVLEO
NORAD 53702·PAYLOAD·🇺🇸 United States

Gestartet Sep 5, 2022 von Cape Canaveral Space Force Station

Loading…

Nächste Überflüge (nächste 24 Stunden)

TLE

AktuellSource: CelesTrak SupGP

Epoche: Sep 15, 2026, 02:39 UTC

1 53702C 22107C   26258.11090278 -.00018309  00000+0 -52381-3 0  2582
2 53702  53.1575  87.3053 0001208  84.0551 331.8894 15.35408948    19

Verfolge STARLINK-4724 in Echtzeit mit AllMySat

Download on the App Store